Princeton, British Columbia

1:33 AM PDT on May 27, 2017 (GMT -0700)
Princeton

Weather History for CWPR - November, 2012

Change the Weather History Date:

Wednesday, November 21, 2012

  Actual Average (CYDC) Record (CYDC)
Temperature  
Mean Temperature 36 °F -  
Max Temperature 44 °F 34 °F 48 °F (2002)
Min Temperature 28 °F 24 °F -13 °F (2013)
Degree Days  
Heating Degree Days 29    
Moisture  
Dew Point 29 °F    
Average Humidity 90    
Maximum Humidity 100    
Minimum Humidity 59    
Precipitation  
Precipitation 0.00 in - - ()
Sea Level Pressure  
Sea Level Pressure 29.80 in    
Wind  
Wind Speed 1 mph ()    
Max Wind Speed 9 mph    
Max Gust Speed -    
Averages and records for this station are not official NWS values.
T = Trace of Precipitation, MM = Missing Value Source: Averaged Metar Reports

Daily Weather History Graph

Daily Weather History Graph

Search for Another Location

Airport or City:

Trip Planner

Search our weather history database for the weather conditions in past years. The results will help you decide how hot, cold, wet, or windy it might be!

Date:

Astronomy

Nov. 21, 2012 Rise Set
Actual Time 7:23 AM PST 4:12 PM PST
Civil Twilight 6:47 AM PST 4:48 PM PST
Nautical Twilight 6:07 AM PST 5:27 PM PST
Astronomical Twilight 5:29 AM PST 6:05 PM PST
Moon 1:01 PM PST (11/21) 12:13 AM PST (11/21)
Length of Visible Light 10h 00m
Length of Day
8h 49m
Waxing Gibbous, 63% of the Moon is Illuminated
Nov 21
Waxing Gibbous
Nov 28
Full
Dec 6
Last Quarter
Dec 13
New
Dec 19
First Quarter

Hourly Weather History & Observations

Time (PST) Temp. Windchill Dew Point Humidity Pressure Visibility Wind Dir Wind Speed Gust Speed Precip Events Conditions
12:00 AM 29.7 °F - 29.5 °F 99% 29.69 in - Calm Calm - N/A   Unknown
1:00 AM 29.8 °F - 29.5 °F 99% 29.67 in - Calm Calm - N/A   Unknown
2:00 AM 28.4 °F - 28.0 °F 99% 29.65 in - NW 1.2 mph - N/A   Unknown
3:00 AM 28.9 °F - 28.6 °F 99% 29.61 in - Calm Calm - N/A   Unknown
4:00 AM 29 °F - 28 °F 96% 29.60 in - Calm Calm - -  
4:00 AM 28.6 °F - 28.2 °F 99% 29.60 in - Calm Calm - N/A   Unknown
5:00 AM 28.9 °F - 28.6 °F 99% 29.59 in - Calm Calm - N/A   Unknown
6:00 AM 28.9 °F - 28.6 °F 99% 29.59 in - Calm Calm - N/A   Unknown
7:00 AM 28.8 °F - 28.4 °F 99% 29.60 in - Calm Calm - N/A   Unknown
8:00 AM 28.6 °F - 28.2 °F 99% - - Calm Calm - N/A   Unknown
9:00 AM 28.8 °F - 28.4 °F 99% 29.64 in - Calm Calm - N/A   Unknown
10:00 AM 29 °F - 29 °F 100% 29.68 in - Calm Calm - -  
10:00 AM 29.5 °F - 29.1 °F 99% 29.68 in - Calm Calm - N/A   Unknown
11:00 AM 30.2 °F - 29.8 °F 99% 29.72 in - Calm Calm - N/A   Unknown
12:00 PM 31.6 °F 27.0 °F 32.0 °F 100% 29.72 in - ESE 4.6 mph - N/A   Unknown
1:00 PM 43.2 °F 41.5 °F 38.7 °F 84% 29.74 in - South 3.5 mph - N/A   Unknown
2:00 PM 43.0 °F - 29.7 °F 59% 29.77 in - South 1.2 mph - N/A   Unknown
3:00 PM 41.0 °F 37.1 °F 27.9 °F 60% 29.82 in - South 5.8 mph - N/A   Unknown
4:00 PM 37 °F - 29 °F 62% 29.88 in - West 4.6 mph - -  
4:00 PM 36.7 °F 32.9 °F 28.6 °F 72% 29.88 in - West 4.6 mph - N/A   Unknown
5:00 PM 36.9 °F 30.1 °F 29.5 °F 75% 29.93 in - WSW 9.2 mph - N/A   Unknown
6:00 PM 34.9 °F - 29.1 °F 79% 29.97 in - Calm Calm - N/A   Unknown
7:00 PM 34.2 °F - 30.0 °F 85% 30.02 in - West 1.2 mph - N/A   Unknown
8:00 PM 32.0 °F - 29.8 °F 92% 30.06 in - SW 2.3 mph - N/A   Unknown
9:00 PM 31.6 °F - 29.3 °F 91% 30.11 in - NW 1.2 mph - N/A   Unknown
10:00 PM 31 °F - 28 °F 85% 30.16 in - Calm Calm - -  
10:00 PM 30.7 °F - 28.2 °F 90% 30.16 in - Calm Calm - N/A   Unknown
11:00 PM 30.2 °F - 28.0 °F 92% 30.19 in - Calm Calm - N/A   Unknown